{"data":{"norad_id":67893,"epoch":"2026-09-19T13:40:45.185952Z","epoch_age_seconds":143526,"freshness":"FRESH","line1":"1 67893U 26035Q   26262.56996743  .00010332  00000+0  32197-3 0  9999","line2":"2 67893  97.2842 194.4809 0001524  93.1993 266.9424 15.33439999 33709","mean_motion":15.33439999,"eccentricity":0.0001524,"inclination_deg":97.2842,"raan_deg":194.4809,"arg_perigee_deg":93.1993,"mean_anomaly_deg":266.9424,"bstar":0.00032197,"rev_number":3370,"period_min":93.906510912658,"perigee_km":464.51507484984,"apogee_km":466.60103310229,"semimajor_km":6843.6950539761,"source":"CELESTRAK","updated_at":"2026-09-20T09:00:43.698434Z"}}